User: anonymous   Login
Location: Unspecified
(0.0000°N, 0.0000°E)
Time: 19:08:36
(UTC+00:00)
Language:

FEDSAT - Orbit

View from above orbital plane
View from above orbital plane
View from above satellite
View from above satellite

Ground track
Ground track

The orbit data is extracted from the following two-line orbital elements,

1 27598U 02056B   19340.76620618 -.00000007 +00000-0 +14519-4 0  9999
2 27598 098.5510 282.6709 0010182 108.6306 251.5982 14.28695893885201
Epoch (UTC): 06 December 2019 18:23:20
Eccentricity: 0.0010182
inclination: 98.5510°
perigee height: 789 km
apogee height: 803 km
right ascension of ascending node: 282.6709°
argument of perigee: 108.6306°
revolutions per day: 14.28695893
mean anomaly at epoch: 251.5982°
orbit number at epoch: 88520

The dashed part of the orbit path shows where the satellite is in the earth's shadow,  

DLR